Date,TemperatureHighF,TemperatureAvgF,TemperatureLowF,DewpointHighF,DewpointAvgF,DewpointLowF,HumidityHigh,HumidityAvg,HumidityLow,PressureMaxIn,PressureMinIn,WindSpeedMaxMPH,WindSpeedAvgMPH,GustSpeedMaxMPH,PrecipitationSumIn
2013-1-1,34,27,18,25,18,10,76,67,56,30.11,29.96,12,4,12,0.00
2013-1-2,36,25,14,17,12,4,70,58,42,30.20,30.09,12,2,12,0.00
2013-1-3,36,24,14,16,10,4,66,54,43,30.19,30.00,11,4,11,0.00
2013-1-4,41,30,24,19,12,8,56,47,39,30.02,29.94,13,3,13,0.00
2013-1-5,41,28,18,23,15,8,69,58,45,30.14,29.98,9,2,9,0.00
2013-1-6,41,31,18,20,15,9,72,54,41,29.98,29.74,12,2,12,0.00
2013-1-7,43,33,23,24,19,12,70,58,46,29.83,29.56,9,2,9,0.00
2013-1-8,47,39,30,25,20,14,57,46,28,29.90,29.57,20,4,20,0.00
2013-1-9,57,40,29,30,23,16,64,51,32,29.89,29.60,7,2,7,0.00
2013-1-10,47,33,20,30,22,12,78,65,44,29.61,29.42,10,2,10,0.00
2013-1-11,20,13,10,13,7,4,82,78,68,30.00,29.61,11,3,11,0.00
2013-1-12,19,12,3,10,4,-2,79,74,63,30.02,29.98,8,2,8,0.00
2013-1-13,21,13,6,10,4,-1,77,69,61,30.08,30.00,10,2,10,0.00
2013-1-14,20,14,8,8,4,1,72,65,55,30.04,29.89,12,5,12,0.00
2013-1-15,32,26,18,21,16,8,76,67,62,30.02,29.89,17,6,17,0.00
2013-1-16,42,32,26,25,19,16,67,59,48,30.19,29.97,13,4,13,0.00
2013-1-17,42,32,24,25,19,15,69,59,49,30.22,29.91,11,4,11,0.00
2013-1-18,52,39,33,27,21,18,56,50,34,29.92,29.78,13,3,13,0.00
2013-1-19,41,34,23,27,20,16,78,59,44,30.13,29.91,9,2,9,0.00
2013-1-20,33,24,17,21,16,10,75,71,61,30.32,29.99,10,2,10,0.00
2013-1-21,32,20,14,20,12,8,79,71,59,30.17,29.90,8,1,8,0.00
2013-1-22,46,31,13,26,18,7,81,61,44,29.97,29.90,8,2,8,0.00
2013-1-23,29,23,18,18,15,12,76,69,60,30.08,29.81,7,1,7,0.00
2013-1-24,54,35,19,31,21,13,77,59,37,29.99,29.75,13,2,13,0.00
2013-1-25,50,36,22,33,24,15,79,64,49,29.98,29.81,7,2,7,0.00
2013-1-26,55,42,32,32,27,23,69,57,39,29.81,29.59,7,1,7,0.00
2013-1-27,37,32,28,32,28,22,88,82,70,29.74,29.60,6,0,6,0.00
2013-1-28,38,30,21,30,23,14,87,74,44,29.74,29.63,10,2,10,0.00
2013-1-29,29,20,8,20,12,0,78,69,55,30.06,29.61,18,3,18,0.00
2013-1-30,34,24,9,26,17,3,86,77,65,29.94,29.70,12,2,12,0.00
2013-1-31,29,15,4,23,9,-1,85,77,68,30.10,29.89,7,1,7,0.00
2013-2-1,46,37,29,34,27,22,80,69,52,30.09,29.87,10,2,10,0.00
2013-2-2,50,36,24,31,24,17,79,63,39,30.17,30.04,13,3,13,0.00
2013-2-3,52,37,29,29,23,20,70,57,29,30.04,29.79,11,3,11,0.00
2013-2-4,52,40,30,28,24,21,70,55,34,29.81,29.68,16,3,16,0.00
2013-2-5,51,40,31,33,27,22,71,59,47,29.83,29.64,8,2,8,0.00
2013-2-6,50,38,28,28,21,16,74,53,30,29.96,29.65,11,2,11,0.00
2013-2-7,45,32,22,26,21,15,79,63,43,29.98,29.79,5,1,5,0.00
2013-2-8,45,33,25,26,21,17,75,63,42,29.84,29.75,5,1,5,0.00
2013-2-9,42,32,20,29,22,14,85,69,51,29.80,29.67,7,1,7,0.00
2013-2-10,32,27,16,26,20,10,87,76,60,30.02,29.80,10,2,10,0.00
2013-2-11,34,21,9,20,12,4,81,68,51,30.00,29.82,12,4,12,0.00
2013-2-12,44,29,19,24,16,9,66,57,45,29.95,29.77,12,4,12,0.00
2013-2-13,49,35,28,33,23,15,86,63,39,30.02,29.75,17,4,17,0.00
2013-2-14,36,30,26,24,19,17,83,66,46,30.20,30.02,13,3,13,0.00
2013-2-15,44,32,24,31,23,19,84,72,52,30.23,30.01,10,2,10,0.00
2013-2-16,52,37,27,29,23,18,72,58,39,30.02,29.63,12,4,12,0.00
2013-2-17,45,36,30,28,23,19,72,59,35,29.86,29.55,13,4,13,0.00
2013-2-18,40,29,21,24,19,13,81,67,52,30.00,29.86,9,1,9,0.00
2013-2-19,32,21,13,20,13,7,92,72,59,29.91,29.67,6,1,6,0.00
2013-2-20,32,24,16,21,16,11,99,70,55,29.80,29.69,6,1,6,0.00
2013-2-21,41,30,21,28,20,14,86,70,47,29.85,29.76,5,1,5,0.00
2013-2-22,43,38,35,15,8,-13,37,28,9,29.67,29.61,11,3,11,0.00
2013-2-24,70,70,64,50,46,44,56,43,39,29.92,29.90,5,2,5,0.00
2013-2-25,72,65,37,46,38,17,51,38,27,29.90,29.67,12,4,12,0.00
2013-2-26,46,37,28,21,17,15,62,45,31,30.10,29.78,14,3,14,0.00
2013-2-27,48,33,23,23,17,14,72,54,30,30.11,30.01,10,2,10,0.00
2013-2-28,50,38,28,24,18,14,58,45,28,30.14,30.02,15,3,15,0.00
2013-3-1,62,45,27,32,25,15,63,48,30,30.13,30.01,16,3,16,0.00
2013-3-2,64,48,35,33,29,23,65,49,29,30.08,29.74,15,3,15,0.00
2013-3-3,57,39,29,35,28,16,87,65,41,29.78,29.43,19,2,19,0.00
2013-3-4,33,25,15,17,14,6,75,63,45,30.22,29.78,19,5,19,0.00
2013-3-5,36,21,9,24,13,2,82,71,56,30.20,29.93,6,1,6,0.00
2013-3-6,38,27,16,27,20,11,83,74,61,29.93,29.62,5,1,5,0.00
2013-3-7,56,39,27,32,25,17,83,61,23,29.91,29.67,10,2,10,0.00
2013-3-8,49,37,29,31,27,21,79,67,49,29.90,29.74,7,1,7,0.00
2013-3-9,50,35,24,29,20,15,85,58,28,30.11,29.80,14,2,14,0.00
2013-3-10,60,39,20,28,19,12,77,49,22,30.11,29.84,13,2,13,0.00
2013-3-11,49,42,33,28,24,16,62,49,34,30.10,29.84,16,4,16,0.00
2013-3-12,44,36,32,23,20,19,60,52,42,29.93,29.91,8,1,8,0.00
2013-3-13,70,51,30,34,26,19,65,42,21,29.99,29.91,16,4,16,0.00
2013-3-14,70,52,36,37,29,24,66,43,22,30.03,29.80,16,2,16,0.00
2013-3-15,68,52,36,32,27,19,69,41,17,29.97,29.75,17,3,17,0.00
2013-3-16,52,37,26,31,26,20,81,66,42,29.96,29.58,8,2,9,0.00
2013-3-17,45,34,24,31,19,10,82,57,24,29.82,29.39,19,4,22,0.00
2013-3-18,46,30,15,20,11,6,72,48,20,29.86,29.70,19,3,19,0.00
2013-3-19,43,34,25,27,20,14,78,57,42,30.16,29.86,10,2,10,0.00
2013-3-20,60,36,17,28,19,9,76,53,28,30.07,29.46,9,1,9,0.00
2013-3-21,50,40,31,33,19,8,82,47,22,29.79,29.45,13,3,13,0.00
2013-3-22,34,28,19,27,15,6,85,60,38,30.03,29.77,10,2,10,0.00
2013-3-23,37,25,14,15,10,7,77,56,31,30.14,30.02,10,1,10,0.00
2013-3-24,36,24,13,15,10,5,75,55,31,30.19,30.11,9,1,10,0.00
2013-3-25,52,30,11,22,11,3,74,49,24,30.16,29.90,9,1,9,0.00
2013-3-26,56,39,24,26,16,8,60,42,27,29.91,29.82,10,1,10,0.00
2013-3-27,65,43,22,29,19,11,65,42,21,29.93,29.81,9,1,9,0.00
2013-3-28,68,48,30,33,24,16,62,42,23,29.97,29.87,8,1,8,0.00
2013-3-29,65,49,38,43,29,22,72,48,30,30.00,29.89,15,2,16,0.00
2013-3-30,63,50,38,37,28,20,76,47,21,30.05,29.95,13,3,13,0.00
2013-3-31,61,47,31,31,24,18,63,42,26,30.02,29.88,13,3,13,0.00
2013-4-1,64,44,24,32,23,15,74,47,25,30.05,29.95,12,2,12,0.00
2013-4-2,72,48,26,34,24,15,67,42,19,29.99,29.78,6,2,7,0.00
2013-4-3,70,54,41,33,27,20,55,37,22,30.00,29.79,13,3,13,0.00
2013-4-4,60,47,33,34,29,22,69,52,37,29.99,29.70,8,2,8,0.00
2013-4-5,62,52,42,44,35,28,70,53,36,29.72,29.60,11,3,11,0.00
2013-4-6,69,50,36,39,32,26,70,54,24,29.76,29.64,13,3,13,0.00
2013-4-7,66,50,36,43,37,32,89,64,34,29.71,29.45,11,2,11,0.00
2013-4-8,36,26,22,33,21,18,91,84,77,30.18,29.62,13,3,13,0.00
2013-4-9,35,26,20,22,17,14,85,70,54,30.30,30.18,8,1,8,0.00
2013-4-10,53,34,17,33,22,11,78,63,44,30.18,29.69,11,2,11,0.00
2013-4-11,59,47,37,36,30,24,69,54,33,29.82,29.66,17,5,17,0.00
2013-4-12,56,44,36,34,28,23,78,54,31,29.95,29.61,11,3,11,0.00
2013-4-13,56,41,38,38,31,22,84,68,46,29.61,29.30,12,3,12,0.00
2013-4-14,39,34,25,31,23,19,85,65,47,29.86,29.50,14,5,14,0.00
2013-4-15,37,30,21,25,21,16,81,70,55,30.02,29.85,9,1,9,0.00
2013-4-16,35,28,23,24,21,17,82,74,60,30.16,29.95,7,1,7,0.00
2013-4-17,38,28,19,29,21,13,84,76,57,30.17,30.13,13,1,13,0.00
2013-4-18,56,39,20,31,22,15,85,56,25,30.13,29.94,12,3,12,0.00
2013-4-19,58,48,35,39,30,23,78,51,32,29.95,29.70,11,2,11,0.00
2013-4-20,64,50,36,42,35,25,83,59,23,29.86,29.69,13,3,13,0.00
2013-4-21,47,35,29,35,29,25,89,79,56,30.12,29.85,10,2,10,0.00
2013-4-22,39,32,26,31,24,19,89,74,52,30.31,30.12,7,1,7,0.00
2013-4-23,54,36,21,30,21,14,77,58,22,30.24,29.96,13,3,13,0.00
2013-4-24,61,46,34,32,26,20,81,51,27,30.10,29.78,13,3,13,0.00
2013-4-25,71,54,37,32,25,21,57,36,17,29.86,29.69,15,3,15,0.00
2013-4-26,78,58,39,36,30,24,60,37,18,30.01,29.86,13,3,13,0.00
2013-4-27,80,63,45,36,28,21,52,30,12,29.96,29.70,16,3,16,0.00
2013-4-28,71,62,52,40,33,24,48,34,24,29.89,29.65,10,2,10,0.00
2013-4-29,68,52,45,41,32,17,62,48,24,29.67,29.40,15,4,15,0.00
2013-4-30,49,42,32,33,20,16,65,42,28,30.13,29.66,15,4,16,0.00
2013-5-1,58,39,28,26,20,15,69,48,24,30.43,30.13,7,1,7,0.00
2013-5-2,70,51,32,30,23,18,67,38,17,30.47,30.12,9,3,9,0.00
2013-5-3,69,55,39,42,28,17,76,38,21,30.12,29.99,11,3,11,0.00
2013-5-4,63,53,45,46,40,32,80,64,43,30.14,30.07,10,2,10,0.00
2013-5-5,74,55,34,42,34,27,80,50,24,30.11,29.91,12,1,12,0.00
2013-5-6,82,60,37,42,33,24,66,39,19,29.95,29.77,8,1,8,0.00
2013-5-7,84,64,42,43,33,27,65,36,16,29.86,29.72,10,2,10,0.00
2013-5-8,78,62,44,44,38,31,64,42,28,30.04,29.86,10,2,10,0.00
2013-5-9,80,60,42,48,39,32,72,49,24,30.05,29.95,9,1,9,0.00
2013-5-10,74,61,46,46,36,23,72,44,24,30.27,30.00,16,3,16,0.00
2013-5-11,83,62,37,41,32,22,56,35,21,30.27,29.94,8,1,8,0.00
2013-5-12,94,72,55,46,38,28,48,32,10,29.97,29.80,11,2,11,0.00
2013-5-13,97,77,59,49,39,31,49,29,11,29.90,29.60,13,2,13,0.00
2013-5-14,86,70,54,47,37,26,66,33,16,29.86,29.62,13,2,13,0.00
2013-5-15,81,66,46,42,32,23,43,29,19,29.94,29.73,8,1,8,0.00
2013-5-16,75,61,54,51,47,41,82,60,37,29.80,29.69,9,2,9,0.00
2013-5-17,63,56,52,56,51,48,88,83,71,29.79,29.74,5,0,5,0.00
2013-5-18,60,56,52,56,52,49,91,88,78,29.83,29.78,8,1,8,0.00
2013-5-19,55,53,51,52,50,48,93,91,88,29.94,29.81,9,1,9,0.00
2013-5-20,67,56,49,52,45,30,93,69,26,30.04,29.93,17,3,17,0.00
2013-5-21,72,57,43,48,42,38,87,60,32,30.01,29.82,12,2,12,0.00
2013-5-22,72,57,46,52,45,40,83,66,45,29.88,29.76,14,4,14,0.00
2013-5-23,78,62,54,54,49,44,84,63,41,29.83,29.59,12,3,12,0.00
2013-5-24,76,62,51,51,43,34,86,56,23,29.84,29.62,10,2,10,0.00
2013-5-25,81,62,44,49,42,35,76,51,29,29.83,29.72,9,2,9,0.00
2013-5-26,80,62,50,58,49,40,80,64,42,29.88,29.70,8,1,8,0.00
2013-5-27,70,58,51,55,49,44,86,74,49,29.80,29.68,12,1,12,0.00
2013-5-28,75,59,46,54,47,42,88,67,35,29.69,29.57,9,1,9,0.00
2013-5-29,60,54,53,54,51,48,92,88,68,29.65,29.56,6,1,6,0.00
2013-5-30,54,52,50,50,48,46,92,88,76,29.74,29.54,11,3,11,0.00
2013-5-31,58,52,49,46,44,41,85,75,62,30.11,29.72,12,4,12,0.00
2013-6-1,77,61,47,53,47,43,86,62,35,30.13,29.94,8,1,8,0.00
2013-6-2,81,65,53,56,50,44,76,59,37,29.94,29.56,12,2,12,0.00
2013-6-3,62,54,47,51,43,38,82,65,45,29.96,29.60,14,4,14,0.00
2013-6-4,57,49,42,44,40,36,81,71,57,30.15,29.96,10,2,10,0.00
2013-6-5,74,58,38,49,42,33,88,59,33,30.14,29.91,6,1,6,0.00
2013-6-6,80,63,46,55,47,39,81,58,35,29.95,29.91,9,1,9,0.00
2013-6-7,87,68,51,59,51,45,85,58,29,29.91,29.60,8,1,8,0.00
2013-6-8,81,69,61,52,47,45,61,47,28,29.84,29.65,8,2,8,0.00
2013-6-9,90,69,52,56,49,43,77,52,29,29.85,29.58,8,2,11,0.00
2013-6-10,84,67,53,56,50,44,75,56,33,29.81,29.66,10,2,10,0.00
2013-6-11,81,66,56,65,56,51,87,73,52,29.93,29.68,15,2,15,0.00
2013-6-12,73,64,53,63,57,49,90,79,65,29.98,29.80,15,2,15,0.00
2013-6-13,84,68,55,63,57,50,86,70,47,29.92,29.65,12,3,12,0.00
2013-6-14,73,62,50,50,44,36,84,56,30,29.95,29.82,11,3,11,0.00
2013-6-15,85,65,45,48,42,37,77,49,22,29.98,29.83,7,1,7,0.00
2013-6-16,82,64,49,53,47,41,78,55,33,30.03,29.90,9,1,9,0.00
2013-6-17,86,70,53,58,53,46,80,57,35,30.04,29.88,8,2,8,0.00
2013-6-18,92,72,58,66,55,48,76,57,32,29.88,29.62,9,2,9,0.00
2013-6-19,92,71,54,63,53,40,80,55,36,29.63,29.34,14,2,14,0.00
2013-6-20,80,68,52,40,36,32,49,33,19,29.88,29.63,8,2,8,0.00
2013-6-21,80,66,56,54,48,40,72,53,38,29.94,29.85,9,2,9,0.00
2013-6-22,73,60,54,56,50,47,80,70,50,29.94,29.82,10,1,10,0.00
2013-6-23,85,66,48,53,48,43,84,57,29,29.86,29.65,7,2,7,0.00
2013-6-24,88,70,53,62,53,44,79,56,33,29.65,29.48,8,1,8,0.00
2013-6-25,89,75,60,58,52,44,82,50,23,29.76,29.55,7,1,7,0.00
2013-6-26,86,74,62,58,52,48,77,50,29,29.99,29.75,8,2,8,0.00
2013-6-27,90,74,59,63,57,53,82,58,32,30.11,29.98,8,1,8,0.00
2013-6-28,94,77,58,63,56,50,78,52,27,30.15,30.02,8,1,8,0.00
2013-6-29,92,77,60,64,58,52,78,56,35,30.09,29.91,11,2,11,0.00
2013-6-30,92,75,60,68,60,55,86,63,38,30.04,29.96,8,1,11,0.00
2013-7-1,94,79,61,64,58,53,77,50,31,30.10,30.02,7,1,7,0.00
2013-8-10,85,75,60,64,57,50,88,55,42,29.99,29.88,9,2,9,0.00
2013-8-11,89,72,58,60,54,47,70,53,33,30.00,29.90,7,1,7,0.00
2013-8-12,90,73,57,60,53,47,70,52,30,30.04,29.89,15,2,15,0.00
2013-8-13,86,72,57,62,53,46,73,52,37,30.04,29.95,12,1,12,0.00
2013-8-14,90,72,58,56,50,46,67,47,24,30.00,29.87,8,1,8,0.00
2013-8-15,92,73,54,61,50,45,73,48,21,29.98,29.86,8,1,8,0.00
2013-8-16,92,74,57,63,49,41,66,44,23,29.91,29.78,10,1,10,0.00
2013-8-17,92,78,63,56,47,38,46,34,24,29.93,29.78,7,1,7,0.00
2013-8-18,93,78,63,58,52,46,59,42,27,29.95,29.81,8,2,8,0.00
2013-8-19,98,79,62,54,48,39,56,36,15,29.92,29.74,8,1,8,0.00
2013-8-20,95,75,61,51,43,37,47,33,17,29.89,29.75,4,1,4,0.00
2013-8-21,85,72,60,54,47,43,59,43,28,30.00,29.82,11,1,11,0.00
2013-8-22,90,75,59,61,54,46,68,49,35,30.03,29.81,9,1,9,0.00
2013-8-23,97,80,65,59,54,47,62,43,22,29.83,29.66,10,1,10,0.00
2013-8-24,90,76,68,59,54,48,62,47,29,29.89,29.75,7,1,7,0.00
2013-8-25,94,78,65,57,50,45,64,40,21,29.93,29.80,7,1,7,0.00
2013-8-26,97,82,70,56,50,44,57,35,20,29.89,29.80,9,1,9,0.00
2013-8-27,93,79,64,58,51,47,59,39,26,29.96,29.83,8,1,8,0.00
2013-8-28,97,81,67,59,54,49,58,42,24,29.92,29.77,10,1,10,0.00
2013-8-29,92,74,62,60,55,51,69,52,27,30.03,29.90,10,2,10,0.00
2013-8-30,96,77,62,62,53,44,74,48,19,29.99,29.80,6,1,6,0.00
2013-8-31,86,73,63,51,46,39,58,40,25,30.03,29.86,7,1,7,0.00
2013-9-1,88,69,51,55,46,38,64,46,30,30.02,29.85,8,1,8,0.00
2013-9-2,87,70,54,59,50,41,67,50,31,29.89,29.79,5,1,5,0.00
2013-9-3,94,77,65,62,56,50,69,51,29,29.93,29.84,5,1,5,0.00
2013-9-4,94,78,67,62,56,48,62,48,33,30.01,29.92,8,1,9,0.00
2013-9-5,95,75,62,65,58,53,75,58,33,29.99,29.83,8,1,8,0.00
2013-9-6,90,74,62,68,61,56,82,67,44,29.97,29.84,11,1,11,0.00
2013-9-7,88,75,64,64,60,54,81,61,33,29.98,29.86,22,2,22,0.00
2013-9-8,79,71,61,68,60,54,85,70,62,29.88,29.71,11,2,11,0.00
2013-9-9,79,66,56,56,52,50,85,64,38,29.94,29.83,10,1,10,0.00
2013-9-10,82,67,54,57,49,44,80,57,29,30.03,29.93,5,1,5,0.00
2013-9-11,83,66,52,56,49,44,77,57,31,30.18,30.00,8,1,8,0.00
2013-9-12,86,66,52,59,51,45,79,60,35,30.18,29.96,7,1,7,0.00
2013-9-13,80,66,56,60,55,49,85,67,49,29.96,29.72,7,1,7,0.00
2013-9-14,67,62,59,63,59,55,91,89,84,30.01,29.77,6,1,7,0.00
2013-9-15,77,65,56,63,56,51,87,74,55,30.07,29.89,10,2,10,0.00
2013-9-16,87,69,54,62,56,50,88,67,41,29.89,29.69,7,1,7,0.00
2013-9-17,76,65,58,59,56,52,85,73,50,29.75,29.58,6,1,6,0.00
2013-9-18,70,60,54,55,49,41,84,69,46,29.89,29.55,15,2,15,0.00
2013-9-19,65,55,48,48,42,38,75,62,45,30.07,29.89,6,1,6,0.00
2013-9-20,76,57,40,52,42,35,86,62,36,30.01,29.71,5,1,5,0.00
2013-9-21,86,61,43,57,44,36,80,56,28,29.71,29.48,5,0,5,0.00
2013-9-22,73,63,54,50,46,41,69,55,41,29.57,29.45,5,1,5,0.00
2013-9-23,73,61,50,47,42,34,72,52,24,29.83,29.57,12,2,12,0.00
2013-9-24,77,56,41,51,41,33,76,58,31,29.87,29.56,12,1,12,0.00
2013-9-25,55,50,48,47,44,40,91,80,58,29.65,29.58,6,1,6,0.00
2013-9-26,52,46,42,46,40,38,92,81,64,29.91,29.63,10,1,10,0.00
2013-9-27,55,47,42,43,40,36,87,77,62,29.92,29.79,10,2,10,0.00
2013-9-28,68,53,41,44,39,36,83,63,40,29.82,29.70,10,2,10,0.00
2013-9-29,66,56,52,44,40,38,63,55,45,29.70,29.49,8,1,8,0.00
2013-11-23,25,24,24,13,12,12,61,60,59,30.10,30.04,7,3,7,0.00
2013-11-24,46,34,25,25,19,12,66,54,43,30.04,29.89,15,4,15,0.00
2013-11-25,43,33,24,28,22,17,78,66,52,30.22,30.04,6,1,6,0.00
2013-11-26,44,32,25,30,24,19,82,72,56,30.24,29.92,10,1,10,0.00
2013-11-27,50,39,24,31,25,17,74,58,41,30.07,29.89,8,2,8,0.00
2013-11-28,40,28,20,29,21,15,83,75,63,30.06,29.89,6,1,6,0.00
2013-11-29,56,41,31,34,28,24,79,63,39,29.98,29.87,9,2,10,0.00
2013-11-30,50,41,36,34,29,25,70,63,51,30.03,29.93,5,1,6,0.00
2013-12-1,46,41,33,33,30,25,74,66,58,29.94,29.56,9,2,9,0.00
2013-12-2,44,36,21,37,32,18,92,84,63,29.72,29.43,10,2,10,0.00
2013-12-3,21,14,8,18,10,4,88,84,77,30.04,29.70,9,2,9,0.00
2013-12-4,13,7,0,7,1,-8,83,77,69,30.10,30.02,7,1,7,0.00
2013-12-5,5,-6,-13,-2,-13,-20,75,72,68,30.21,30.08,4,0,4,0.00
2013-12-6,0,-10,-16,-8,-17,-22,75,71,68,30.32,30.20,7,0,7,0.00
2013-12-7,-7,-14,-20,-14,-21,-27,73,71,70,30.30,29.93,4,0,4,0.00
2013-12-8,8,-2,-16,1,-8,-22,75,73,69,30.02,29.85,7,1,7,0.00
2013-12-9,21,11,-2,11,4,-8,76,71,65,29.99,29.81,13,4,13,0.00
2013-12-10,31,22,14,22,15,9,83,74,66,30.19,29.79,16,3,16,0.00
2013-12-11,28,20,9,18,12,4,82,72,62,30.15,30.03,12,4,12,0.00
2013-12-12,38,32,24,25,21,15,71,64,58,30.04,29.79,11,4,11,0.00
2013-12-13,42,36,30,32,26,20,76,69,63,30.05,29.78,13,2,13,0.00
2013-12-14,41,35,27,30,25,20,76,68,63,30.06,29.90,13,4,13,0.00
2013-12-15,49,41,34,30,27,24,71,59,45,29.90,29.80,15,4,15,0.00
2013-12-16,47,38,29,32,26,22,77,62,49,30.13,29.86,7,1,7,0.00
2013-12-17,46,35,24,32,26,18,83,69,57,30.13,29.67,11,2,11,0.00
2013-12-18,43,38,27,32,28,23,88,69,55,29.73,29.63,10,2,10,0.00
2013-12-19,27,10,-3,23,4,-9,84,76,69,30.07,29.73,13,2,13,0.00
2013-12-20,28,19,0,17,11,-6,79,72,62,29.84,29.46,12,3,12,0.00
2013-12-21,32,26,17,26,20,12,83,78,72,29.89,29.46,4,1,4,0.00
2013-12-22,17,11,-4,12,5,-10,86,79,71,30.18,29.88,5,1,5,0.00
2013-12-23,37,16,-5,33,11,-11,85,78,75,30.17,29.70,11,2,11,0.00
2013-12-24,40,37,33,34,27,20,87,68,53,30.18,29.79,15,5,15,0.00
2013-12-25,36,30,22,24,19,14,72,65,58,30.21,29.95,14,4,14,0.00
2013-12-26,44,36,30,31,25,20,71,63,56,30.06,29.92,10,3,10,0.00
2013-12-27,48,40,35,32,28,25,66,62,54,30.00,29.73,13,4,13,0.00
2013-12-28,41,26,15,30,15,5,71,64,56,30.26,29.71,15,2,15,0.00
2013-12-29,34,25,14,24,16,7,78,69,60,30.22,29.77,11,2,11,0.00
2013-12-30,42,36,32,30,26,23,72,66,60,30.04,29.75,9,2,9,0.00
2013-12-31,39,36,33,32,28,26,87,72,61,29.95,29.73,11,2,11,0.00
2014-1-1,38,31,24,32,26,20,91,84,77,30.19,29.93,7,1,7,0.00
2014-1-2,39,30,22,29,23,18,85,76,64,30.08,29.64,12,4,12,0.00